星链-6057 (STARLINK-6057 )

导读 | 豆包AI

STARLINK-6057是美国太空探索技术公司星链互联网卫星星座的一员,于2023年5月31日发射入轨。星链计划旨在构建覆盖全球的低轨卫星互联网系统,为偏远地区、海上以及空中等场景提供高速网络接入服务。该卫星加入星座后,进一步拓展了星链系统的服务覆盖范围,提升了星座整体的通信容量与服务稳定性。

Basic Information
目录编号:
56815
目录名称:
STARLINK-6057
国际标识:
2023-078BA
轨道中心:
EARTH
卫星名称:
星链-6057
卫星全名:
星链-6057 (STARLINK-6057 )
卫星状态:
已陨落 最后检测时间 2025-04-10
发射日期:
2023-05-31 UTC
国别 :
美国 (US)
星等 :
--
Orbit Information
数据来源 国际轨道数据
星历时间: 2025-04-10T05:58:42+0800
轨道信息已过期385天
半长轴: 6528.927km
偏心率: 0.0008813
轨道倾角: 69.990°
近地点辐角 277.210°
升交点赤经 90.563°
平近点角 130.892°
近地点: 145.038km
远地点: 156.546km
周期: 87.503分钟
每日圈数: 16.456598
Detailed Information
固有亮度:
5
最大亮度:
2.5
卫星平台:
Starlink v1.5
覆盖范围:
全球
运营商:
太空探索技术公司
运营商所在国:
美国
制造商(研发单位):
太空探索技术公司
制造商所在国:
美国
使用方式:
暂无
Satellite Introduction
星链(Starlink)计划是由太空探索技术公司(SpaceX)提出的一个巨型低轨卫星互联网星座项目,计划在2019年至2024年间在太空搭建由约1.2万颗卫星组成的“星链”网络,其中1584颗将部署在地球上空550千米处的近地轨道,并从2020年开始工作。该卫星仍在工作。